Поиск запчастей

Артикул Бренд Название Остаток Остаток Цена Поставщик Дата обновления
ВК-418 РелКом Выключатель заднего хода а/м КАМАЗ, МТЗ-80/-82, а/м МАЗ, а/м ГАЗ РелКом 5 152.00 Марк 07.05.26
ДУТЖ-05 РелКом Датчик ДУТЖ-05 температуры охлаждающей жидкости МТЗ (резьба К 3/8, винт М4) РелКом 2 238.00 Марк 07.05.26
ТМ 111-01 РелКом Датчик ТМ-111-01 сигнализатора температуры охлаждающей жидкости (винт М4, t=100 градусов) РелКом 2 245.00 Марк 07.05.26
Г287 ПРАМО Генератор ГАЗ-3307,66,ПАЗ дв.ЗМЗ-66.10,513.10 14В 90А ПРАМО 9 10373.70 АвтоАльянс отечественные машины 07.05.26
EKO-328 EKOFIL Фильтр топливный ЯМЗ-536 тонкой очистки ЕВРО-4 Стандарт EKOFIL 10 624.64 АвтоАльянс отечественные машины 07.05.26
120-12-007 MEGAPOWER Патрубок КАМАЗ-ЕВРО приемный MEGAPOWER 17 1344.00 АвтоАльянс отечественные машины 07.05.26
110-15-002 MEGAPOWER Фильтр топливный КАМАЗ грубой очистки PreLine 420 с подогревом (стакана) в сборе MEGAPOWER 96 4358.69 АвтоАльянс отечественные машины 07.05.26
120-14-074 MEGAPOWER Труба выхлопная глушителя КАМАЗ-65115 MEGAPOWER 5 5823.00 АвтоАльянс отечественные машины 07.05.26
KAMT0002 KMK GLASS Стекло ветровое КАМАЗ (защитная полоса) KMK 46 2056.92 АвтоАльянс отечественные машины 07.05.26
EKO-03.328 EKOFIL Фильтр топливный ЯМЗ-536 тонкой очистки ЕВРО-4 EKOFIL 67 478.85 АвтоАльянс отечественные машины 07.05.26
6520-1311010-02 ТЕХНОТРОН Бачок расширительный КАМАЗ-6520 пластик с крышкой (без/с клапаном 2шт.) ТЕХНОТРОН 47 2119.75 АвтоАльянс отечественные машины 07.05.26
INF.10.0806PUBL STARTEC Трубка пневматическая d=8мм 8х6 (раб.температура-20+60) 1м голубая PU STARTEC 75 160.43 АвтоАльянс отечественные машины 07.05.26
6312В5-1303010-010 NO NAME Патрубок МАЗ радиатора верхний (ЯМЗ-536) 69 636.84 АвтоАльянс отечественные машины 07.05.26
112.08.69-03-TRS AE АвтоЭлектрика Фонарь задний, КамАЗ, МАЗ, УРАЛ, левый, светодиодный, с бегущим указателем поворота, жгут с байонетным разъемом, 24 В (ан. 112.07.70-03) >50 2050.00 Хомченко ИП 07.05.26
21082-1301012 ПРАМО Радиатор алюминиевый, ВАЗ, универсальный <10 0.00 Хомченко ИП 07.05.26
САКД.458201.050-01 БЕЛОГ Зеркало внешнее заднего вида "основное" (БЕЛОГ) 48 1784.12 Маззапчасть 06.05.26
252136 МАЗ Шайба (МАЗ) 2420 3.01 Маззапчасть 06.05.26
4370-2912444 МАЗ Кронштейн (МАЗ) 2 1642.11 Маззапчасть 06.05.26
500-2902409У МАЗ Стремянка рессоры (упаковка) (МАЗ) 27 1001.34 Маззапчасть 06.05.26
533602-1104617 МАЗ Трубка отводящая от форсунок (МАЗ) 1 1046.96 Маззапчасть 06.05.26
5550В5-8505338 МАЗ Вилка (МАЗ) 2 794.27 Маззапчасть 06.05.26
6422-1705050 МАЗ Воздухопровод (МАЗ) 1 2416.11 Маззапчасть 06.05.26
6422-3506188 МАЗ Трубка со шлангом (МАЗ) 2 2945.74 Маззапчасть 06.05.26
6430-5108024У МАЗ Крышка (упаковка) (МАЗ) 9 1854.25 Маззапчасть 06.05.26
ST-CX14010-MAZ-3 Покупные Элемент топливный грубой очистки (ST-CX 140103 MAZ) 13 2161.43 Маззапчасть 06.05.26
А1-175/375.000 БААЗ Амортизатор двухтрубный гидравлический телескопический (БААЗ) 2 5690.08 Маззапчасть 06.05.26
4370-1018090У МАЗ Оболочка (упаковка) (МАЗ) 3 498.86 Маззапчасть 06.05.26
551605-1715031У МАЗ Пластина (упаковка) (МАЗ) 2 1108.86 Маззапчасть 06.05.26
64221-1201120У МАЗ Патрубок (упаковка) (МАЗ) 3 2312.21 Маззапчасть 06.05.26
64221-3502150/151-10У МАЗ Щиты (комплект) (МАЗ) 10 1372.91 Маззапчасть 06.05.26
6516Y9-2912622-000 МАЗ Буфер (МАЗ) 2 3029.72 Маззапчасть 06.05.26
ДЧ8167-1 ВЗЭП Блок датчиков давления воздуха (ВЗЭП) 2 15162.20 Маззапчасть 06.05.26
5440-2402020-010У МАЗ Шестерня ведущая и ведомая (МАЗ) 1 75681.90 Маззапчасть 06.05.26
5434-2912408У МАЗ Стремянка (упаковка) (МАЗ) 4 1806.47 Маззапчасть 06.05.26
555035-8101036-004 МАЗ Шланг (МАЗ) 1 1325.71 Маззапчасть 06.05.26
643008-8101032-004 МАЗ Шланг (МАЗ) 1 1421.29 Маззапчасть 06.05.26
6502Н9-2304093-000 МАЗ Кулак поворотный левый (МАЗ) 2 57751.60 Маззапчасть 06.05.26
4381С0-2902012-060 МАЗ Рессора передняя (МАЗ) 1 27103.40 Маззапчасть 06.05.26
4381С0-2934088-060 МАЗ Прокладка (МАЗ) 2 5465.54 Маззапчасть 06.05.26
ПН24/12-М1 ВЗЭП Преобразователь ПН24/12-М1 (ВЗЭП) 2 11387.50 Маззапчасть 06.05.26
258993-10 МАЗ Штифт (МАЗ) 10 18.82 Маззапчасть 06.05.26
372876-10 МАЗ Болт М20х1.5-6дх75 (МАЗ) 170 101.00 Маззапчасть 06.05.26
437143-1109375 МАЗ Уплотнитель (МАЗ) 9 559.32 Маззапчасть 06.05.26
543208-1104492 МАЗ Трубка всасывающая (МАЗ) 5 1177.64 Маззапчасть 06.05.26
555102-1104492-010 МАЗ Трубка всасывающая (МАЗ) 2 3208.93 Маззапчасть 06.05.26
555102-1104586-010 МАЗ Трубка топливная со шлангом (МАЗ) 1 3631.04 Маззапчасть 06.05.26
631708-1104492 МАЗ Трубка (МАЗ) 1 5538.87 Маззапчасть 06.05.26
631708-1104503 МАЗ Трубка (МАЗ) 1 1520.11 Маззапчасть 06.05.26
631708-1104513 МАЗ Трубка (МАЗ) 1 5285.45 Маззапчасть 06.05.26
64302-1109152-002 МАЗ Распорка (МАЗ) 1 280.93 Маззапчасть 06.05.26
543242-1203020-020 МАЗ Прокладка (МАЗ) 2 103.18 Маззапчасть 06.05.26
5336-1703510 МАЗ Пружина (МАЗ) 40 16.29 Маззапчасть 06.05.26
5336-1703594 МАЗ Пружина (МАЗ) 505 31.85 Маззапчасть 06.05.26
5440-2405035-001У МАЗ Сателлит (упаковка) (МАЗ) 80 2888.18 Маззапчасть 06.05.26
6303-2502158-050У МАЗ Шестерня (упаковка) (МАЗ) 2 13005.10 Маззапчасть 06.05.26
83781-2707046 МАЗ Шайба (МАЗ) 97 97.03 Маззапчасть 06.05.26
9758-2704040 МАЗ Гнездо шкворня (МАЗ) 1 12819.40 Маззапчасть 06.05.26
4380-2912101 МАЗ Лист 1 (МАЗ) 7 3999.21 Маззапчасть 06.05.26
4380-2912409-010 МАЗ Стремянка (МАЗ) 2 1360.82 Маззапчасть 06.05.26
4381С0-2912013-060 МАЗ Опора (МАЗ) 1 45848.50 Маззапчасть 06.05.26
4570-2912102-000 МАЗ Лист 2 (МАЗ) 1 5010.69 Маззапчасть 06.05.26
64229-2912032 МАЗ Болт центровой (МАЗ) 398 267.53 Маззапчасть 06.05.26
64229-2912107 МАЗ Лист 7 (МАЗ) 2 3835.94 Маззапчасть 06.05.26
6501-2916030 МАЗ Втулка (МАЗ) 424 699.41 Маззапчасть 06.05.26
6516V8-2902052-000 МАЗ Лист 1 со втулками (МАЗ) 6 15140.80 Маззапчасть 06.05.26
8571-2912101 МАЗ Лист 1 (МАЗ) 2 2538.11 Маззапчасть 06.05.26
8926-2902447-20 МАЗ Кронштейн (МАЗ) 1 4794.20 Маззапчасть 06.05.26
93866-2912412 МАЗ Накладка (МАЗ) 3 4247.92 Маззапчасть 06.05.26
93892-2918054 МАЗ Ось (МАЗ) 2 4581.33 Маззапчасть 06.05.26
9398-2902415 МАЗ Накладка (МАЗ) 1 5744.50 Маззапчасть 06.05.26
97583-2912419-030 МАЗ Накладка левая (МАЗ) 3 4692.47 Маззапчасть 06.05.26
500А-3001028 МАЗ Шайба шкворня (МАЗ) 10 71.68 Маззапчасть 06.05.26
64221-3001020 МАЗ Шайба регулировочная (МАЗ) 2 214.67 Маззапчасть 06.05.26
64221-3001031 МАЗ Рычаг (МАЗ) 5 3671.94 Маззапчасть 06.05.26
543266-3104034-600У МАЗ Крышка с манжетами (упаковка) (МАЗ) 6 11478.50 Маззапчасть 06.05.26
5440-3403016 МАЗ Кронштейн (МАЗ) 1 3942.37 Маззапчасть 06.05.26
64221-3408016 МАЗ Наконечник (МАЗ) 10 513.34 Маззапчасть 06.05.26
533657-3506197 МАЗ Трубка со шлагном (МАЗ) 2 1956.71 Маззапчасть 06.05.26
5440-3502151-10 МАЗ Щит тормоза (МАЗ) 1 1054.56 Маззапчасть 06.05.26
5440А8-3506142 МАЗ Трубка со шлангом (МАЗ) 1 6502.20 Маззапчасть 06.05.26
551605-3570234-700 МАЗ Трубка (МАЗ) 2 770.37 Маззапчасть 06.05.26
555102-3570234-700 МАЗ Трубка со шлангом (МАЗ) 10 752.63 Маззапчасть 06.05.26
5551А2-3506142 МАЗ Трубка со шлангом (МАЗ) 2 5669.93 Маззапчасть 06.05.26
64227-3506025 МАЗ Прокладка (МАЗ) 10 13.76 Маззапчасть 06.05.26
64227-3506029 МАЗ Прокладка (МАЗ) 8 16.29 Маззапчасть 06.05.26
64227-3537022 МАЗ Трубка со шлангом (МАЗ) 1 2046.84 Маззапчасть 06.05.26
64221-6106148 МАЗ Пружина ограничит. (МАЗ) 320 45.98 Маззапчасть 06.05.26
6430-6105037 МАЗ Обойма фиксатора левая (МАЗ) 95 559.39 Маззапчасть 06.05.26
64221-8201010 МАЗ Держатель зеркала правый (МАЗ) 2 4067.63 Маззапчасть 06.05.26
64226-8202032 МАЗ Поручень (МАЗ) 50 1074.11 Маззапчасть 06.05.26
6430-8406024-010 МАЗ Пружина (МАЗ) 220 65.53 Маззапчасть 06.05.26
651608-8501235-010 МАЗ Втулка (МАЗ) 11 4012.24 Маззапчасть 06.05.26
83781-8511024 МАЗ Кронштейн (МАЗ) 1 4018.40 Маззапчасть 06.05.26
83781-8511025 МАЗ Кронштейн (МАЗ) 1 4018.40 Маззапчасть 06.05.26
200220 МАЗ Болт М6-6нх55 ОСТ 3700112275 (МАЗ) 10 9.77 Маззапчасть 06.05.26
200844 МАЗ Болт М14х1.5х75 ОСТ 37.001.123-96 (МАЗ) 30 40.19 Маззапчасть 06.05.26
200935 МАЗ Болт М18х1.5-6нх80 (МАЗ) 130 66.61 Маззапчасть 06.05.26
201458 МАЗ Болт М8-6дх25 ОСТ 3700112375 (МАЗ) 390 7.97 Маззапчасть 06.05.26
201460 МАЗ Болт М8-6дх30 ОСТ 37.001.123-96 (МАЗ) 120 15.20 Маззапчасть 06.05.26
201476 МАЗ Болт М8х1-6дх20 ОСТ 37.001.123-96 (МАЗ) 330 8.32 Маззапчасть 06.05.26

Страницы